{"data":{"norad_id":65261,"intl_designator":"2025-180C","name":"2025-180C","alt_names":[],"object_type":"PAYLOAD","status":"ACTIVE","operator":null,"country":"TBD","launch_date":"2025-08-19","launch_site_code":"JSC","launch_vehicle":null,"mission":null,"orbit_class":"UNKNOWN","rcs_meters":null,"size_class":null,"mass_kg":null,"dimensions":null,"purposes":[],"wikipedia_slug":null,"has_3d_model":false,"image_url":null,"decayed_at":null,"tle_current":{"epoch":"2026-09-21T23:26:29.164416Z","epoch_age_seconds":34635,"freshness":"FRESH","line1":"1 65261U 25180C   26264.97672644  .00003166  00000+0  16778-3 0  9998","line2":"2 65261  97.5358  31.2787 0013240 352.7694   7.3346 15.16064872 60327","mean_motion":15.16064872,"eccentricity":0.001324,"inclination_deg":97.5358,"raan_deg":31.2787,"arg_perigee_deg":352.7694,"mean_anomaly_deg":7.3346,"bstar":0.00016778,"rev_number":6032,"period_min":94.982742928431,"perigee_km":508.61744098466,"apogee_km":526.87774338476,"semimajor_km":6895.8845921847,"source":"CELESTRAK","updated_at":"2026-09-22T09:00:30.244828Z"}}}